Campo, CA

1:54 AM PST on January 20, 2018 (GMT -0800)
Campo

Weather History for KCZZ - January, 2012

Change the Weather History Date:

Thursday, January 12, 2012

  Actual Average Record
Temperature  
Mean Temperature 53 °F 48 °F  
Max Temperature 61 °F 63 °F 84 °F (2004)
Min Temperature 45 °F 34 °F 17 °F (1962)
Degree Days  
Heating Degree Days 12 16  
Month to date heating degree days 141 203  
Since 1 July heating degree days 1407 1309  
Cooling Degree Days 0 0  
Month to date cooling degree days 0 0  
Year to date cooling degree days 0 0  
Growing Degree Days 4 (Base 50)    
Moisture  
Dew Point 12 °F    
Average Humidity 21    
Maximum Humidity 31    
Minimum Humidity 11    
Precipitation  
Precipitation 0.00 in 0.10 in 1.31 in (1951)
Month to date precipitation 0.00 1.16  
Year to date precipitation 0.00 1.16  
Since 1 July precipitation 5.24  
Snow  
Snow 0.00 in - - ()
Month to date snowfall 0.0  
Year to date snowfall 0.0  
Snow Depth 0.00 in    
Sea Level Pressure  
Sea Level Pressure 29.97 in    
Wind  
Wind Speed 9 mph (ENE)    
Max Wind Speed 25 mph    
Max Gust Speed 29 mph    
T = Trace of Precipitation, MM = Missing Value Source: NWS Daily Summary

Daily Weather History Graph

Daily Weather History Graph

Search for Another Location

Airport or City:

Trip Planner

Search our weather history database for the weather conditions in past years. The results will help you decide how hot, cold, wet, or windy it might be!

Date:

Astronomy

Jan. 12, 2012 Rise Set
Actual Time 6:48 AM PST 4:59 PM PST
Civil Twilight 6:21 AM PST 5:26 PM PST
Nautical Twilight 5:51 AM PST 5:56 PM PST
Astronomical Twilight 5:21 AM PST 6:26 PM PST
Moon 8:54 PM PST (1/12) 8:48 AM PST (1/12)
Length of Visible Light 11h 04m
Length of Day
10h 11m
Waning Gibbous, 86% of the Moon is Illuminated
Jan 12
Waning Gibbous
Jan 16
Last Quarter
Jan 22
New
Jan 30
First Quarter
Feb 7
Full

Hourly Weather History & Observations

Time (PST) Temp. Dew Point Humidity Pressure Visibility Wind Dir Wind Speed Gust Speed Precip Events Conditions
12:52 AM 55.0 °F 19.9 °F 25% 29.95 in - NE 6.9 mph - N/A   Unknown
1:52 AM 55.9 °F 21.0 °F 26% 29.94 in - ENE 4.6 mph - N/A   Unknown
2:52 AM 55.9 °F 19.9 °F 25% 29.94 in - NNE 4.6 mph - N/A   Unknown
3:52 AM 55.0 °F 10.0 °F 17% 29.93 in - NE 6.9 mph - N/A   Unknown
4:52 AM 55.0 °F 12.0 °F 18% 29.94 in - Variable 3.5 mph - N/A   Unknown
5:52 AM 48.0 °F 19.9 °F 33% 29.96 in - Calm Calm - N/A   Unknown
6:52 AM 52.0 °F 16.0 °F 24% 29.97 in - ENE 4.6 mph - N/A   Unknown
7:52 AM 54.0 °F 17.1 °F 23% 29.98 in - NE 4.6 mph - N/A   Unknown
8:52 AM 57.9 °F 17.1 °F 20% 29.99 in - ENE 16.1 mph - N/A   Unknown
9:52 AM 57.9 °F 16.0 °F 19% 29.99 in - ENE 15.0 mph 26.5 mph N/A   Unknown
10:52 AM 57.0 °F 12.9 °F 18% 29.99 in - ENE 17.3 mph - N/A   Unknown
11:52 AM 57.0 °F 14.0 °F 18% 29.96 in - ENE 16.1 mph - N/A   Unknown
12:52 PM 57.9 °F 12.9 °F 17% 29.94 in - ENE 15.0 mph - N/A   Unknown
1:52 PM 59.0 °F 10.9 °F 15% 29.93 in - ENE 12.7 mph - N/A   Unknown
2:52 PM 60.1 °F 7.0 °F 12% 29.93 in - ENE 18.4 mph - N/A   Unknown
3:52 PM 57.9 °F 10.9 °F 16% 29.93 in - ENE 17.3 mph - N/A   Unknown
4:52 PM 53.1 °F 10.0 °F 18% 29.96 in - East 11.5 mph - N/A   Unknown
5:52 PM 48.9 °F 10.0 °F 21% 29.99 in - ENE 12.7 mph - N/A   Unknown
6:52 PM 50.0 °F 7.0 °F 18% 29.99 in - Calm Calm - N/A   Unknown
7:52 PM 50.0 °F 6.1 °F 17% 30.00 in - Calm Calm - N/A   Unknown
8:52 PM 52.0 °F 3.9 °F 14% 29.99 in - Calm Calm - N/A   Unknown
9:52 PM 52.0 °F 3.9 °F 14% 29.99 in - Variable 4.6 mph 19.6 mph N/A   Unknown
10:52 PM 48.9 °F 5.0 °F 17% 30.01 in - ENE 10.4 mph - N/A   Unknown
11:52 PM 50.0 °F 3.0 °F 15% 30.01 in - ENE 10.4 mph 17.3 mph N/A   Unknown